Location: ??
(34.9170°N, 135.5016°E)
Time: 18:04:33
(UTC+00:00)

Cosmos 2292 Rocket - Pass Details

Date: 29 October 2020
Orbit: 381 x 1451 km, 83.0° (Epoch: 30 November)

Event Time Altitude Azimuth Distance (km) Brightness Sun altitude
Rises 20:39:09 0° 190° (S) 2,253 6.5 -8.4°
Reaches altitude 10° 20:41:00 10° 193° (SSW) 1,436 5.4 -8.0°
Maximum altitude 20:44:01 68° 277° (W) 470 2.8 -7.4°
Drops below altitude 10° 20:47:36 10° 1° (N) 1,705 5.7 -6.7°
Sets 20:49:58 0° 4° (N) 2,738 6.8 -6.2°
